Location: Doschendorf
(50.0069°N, 11.0602°E)
Time: 12:44:17
(UTC+00:00)

Meteor 2-20 - Pass Details

Date: 17 November 2019
Orbit: 940 x 958 km, 82.5° (Epoch: 05 December)

Event Time Altitude Azimuth Distance (km) Brightness Sun altitude
Rises 16:33:36 0° 181° (S) 3,608 7.7 -10.3°
Reaches altitude 10° 16:36:04 10° 179° (S) 2,670 7.0 -10.6°
Maximum altitude 16:42:09 73° 96° (E) 1,002 4.4 -11.6°
Drops below altitude 10° 16:48:18 10° 14° (NNE) 2,699 6.5 -12.5°
Sets 16:50:49 0° 12° (NNE) 3,650 7.2 -12.9°
